Location: *
(40.7190°N, 4.2480°W)
Time: 00:55:13
(UTC+00:00)

Cosmos 1603 - Pass Details

Date: 18 February 2020
Orbit: 833 x 858 km, 71.0° (Epoch: 04 April)

Event Time Altitude Azimuth Distance (km) Brightness Sun altitude
Rises 06:18:58 0° 230° (SW) 3,414 6.5 -9.9°
Reaches altitude 10° 06:21:40 10° 240° (WSW) 2,479 5.7 -9.4°
Maximum altitude 06:26:43 32° 303° (WNW) 1,423 4.4 -8.5°
Drops below altitude 10° 06:31:47 10° 6° (N) 2,477 6.1 -7.5°
Sets 06:34:31 0° 16° (NNE) 3,411 6.9 -7.0°
